Weather Roundup
Issued by NWS

Home | Current Version | Previous Version | Graphics & Text | Print | Product List | Glossary Off
Versions: 1 2 3 4 5 6 7 8 9 10 11 12 13 14 15 16 17 18 19 20 21 22 23 24 25 26 27 28 29 30 31 32 33 34 35 36 37 38 39 40 41 42 43 44 45 46 47 48 49 50

000
NZUS93 KARX 291559
HRRWXR

CURRENT HOURLY OBSERVATIONS ACROSS
MUCH OF THE UPPER MISSISSIPPI VALLEY
NATIONAL WEATHER SERVICE LA CROSSE WI
1100 AM CDT SAT AUG 29 2015


...SOUTHEAST MINNESOTA...


CITY           SKY/WX    TMP DP  RH WIND       PRES   REMARKS
ROCHESTER      CLOUDY    64  60  87 NE3       30.08R
ROCHESTER/MAYO CLOUDY    63  62  94 CALM      30.07S
WINONA         CLOUDY    63  59  88 CALM      30.06R
AUSTIN         CLOUDY    64  61  88 NE3       30.07R
ALBERT LEA     CLOUDY    61  61 100 CALM      30.08R
DODGE CENTER   PTSUNNY   63  59  88 CALM      30.08R
PRESTON        CLOUDY    63  59  88 NE3       30.07R
OWATONNA       CLOUDY    61  59  94 CALM      30.08R
FARIBAULT      CLOUDY    61  59  94 SE3       30.08S
$$

...ELSEWHERE IN MINNESOTA...


CITY           SKY/WX    TMP DP  RH WIND       PRES   REMARKS
MINNEAPOLIS    CLOUDY    60  58  92 S5        30.08R
INTNL FALLS    NOT AVBL
DULUTH         CLOUDY    67  57  70 W10       30.04S
RED WING       CLOUDY    63  57  82 NW3       30.07R
REDWOOD FALLS  CLOUDY    59  58  96 S6        30.07S FOG
MANKATO        CLOUDY    59  55  88 CALM      30.08R
WORTHINGTON    CLOUDY    61  55  82 SE6       30.09S
FAIRMONT       CLOUDY    57  54  88 SE5       30.08S
$$

...SOUTHWEST WISCONSIN...


CITY           SKY/WX    TMP DP  RH WIND       PRES   REMARKS
LA CROSSE      CLOUDY    65  59  81 CALM      30.05R
PRAIRIE DU CHI CLOUDY    63  62  96 NW6       30.03S
BOSCOBEL       CLOUDY    66  63  90 CALM      30.03R
LONE ROCK      NOT AVBL
PLATTEVILLE    CLOUDY    67  66  96 N3        30.02R
FORT MC COY    NOT AVBL
CAMP DOUGLAS   CLOUDY    63  63 100 E6        30.05S
VIROQUA        CLOUDY    62  62 100 NE5       30.05S
WIS DELLS      CLOUDY    62  60  94 E5        30.04S
$$

...ELSEWHERE IN WISCONSIN...


CITY           SKY/WX    TMP DP  RH WIND       PRES   REMARKS
MILWAUKEE      CLOUDY    63  60  90 SE10      30.05S
MADISON        DRIZZLE   64  62  93 SE6       30.03S FOG
GREEN BAY      CLOUDY    64  61  90 SE8       30.08S FOG
EAU CLAIRE     NOT AVBL
BLACK RVR FLS  CLOUDY    65  62  90 CALM      30.05R
MEDFORD        CLOUDY    60  59  96 CALM      30.08R
WAUSAU         CLOUDY    63  59  87 S6        30.07R
WIS RAPIDS     NOT AVBL
MARSHFIELD     CLOUDY    64  58  80 S6        30.07R
RICE LAKE      CLOUDY    61  58  89 W3        30.09R
$$

...NORTHEAST IOWA...


CITY           SKY/WX    TMP DP  RH WIND       PRES   REMARKS
DECORAH        CLOUDY    63  61  94 NE6       30.04R
MASON CITY     CLOUDY    65  62  90 NE6       30.08R
CHARLES CITY   CLOUDY    63  63 100 NE8       30.06R
OELWEIN          N/A     66  64  94 NE7       30.04S
$$

...ELSEWHERE IN IOWA...


CITY           SKY/WX    TMP DP  RH WIND       PRES   REMARKS
DES MOINES     CLOUDY    67  62  84 NE7       30.03R
IOWA CITY      CLOUDY    70  68  93 N6        30.01S FOG
FORT DODGE     CLOUDY    63  57  82 N6        30.09R
$$

...NORTHERN ILLINOIS...


CITY           SKY/WX    TMP DP  RH WIND       PRES   REMARKS
CHICAGO-OHARE  CLOUDY    67  64  90 E6        30.04R
CHICAGO-MIDWAY CLOUDY    70  63  78 SE6       30.04S
MOLINE         CLOUDY    70  65  84 CALM      30.01R
ROCKFORD       CLOUDY    65  62  90 SE5       30.05R FOG
PEORIA         PTSUNNY   78  65  63 SW9       30.02R
$$

NOTE: "FAIR" INDICATES FEW OR NO CLOUDS BELOW 12,000 FEET WITH NO
SIGNIFICANT WEATHER AND/OR OBSTRUCTIONS TO VISIBILITY. WIND
SPEEDS ARE IN MILES-PER-HOUR.



USA.gov is the U.S. government's official web portal to all federal, state and local government web resources and services.